Wind_Speed
10 11 12 12 12 12 11 10 9 7 6 5 4 3 3 4 4 5 5 6 7 8 8 8 9 10 10 10 11 11 12 13 15 15 16 15 16 18 18 17 16 15 15
10 11 11 12 12 12 11 10 9 8 7 6 5 4 4 4 4 5 5 5 6 7 8 8 8 9 10 10 11 12 13 14 15 15 16 17 17 18 18 18 17 16 16
10 10 11 11 12 12 12 11 10 9 7 6 6 5 4 4 4 4 5 5 5 6 7 7 8 9 9 10 11 13 13 14 16 17 17 17 17 18 18 19 18 18 17
10 11 11 12 12 12 12 11 11 10 8 7 6 6 5 5 4 4 5 5 5 6 6 7 8 9 9 9 10 11 12 13 15 17 17 18 18 18 18 19 19 18 18
10 11 11 12 12 12 11 11 11 10 9 8 7 6 6 5 5 5 5 5 5 6 6 7 8 9 9 9 9 10 12 13 15 17 18 18 19 18 19 20 20 19 18
9 10 11 11 12 12 11 11 11 10 9 9 8 7 6 5 5 5 5 5 5 6 6 7 7 8 9 9 9 10 11 13 14 16 17 18 19 19 19 20 21 20 20
9 10 10 11 11 11 11 11 10 10 9 9 8 8 7 6 6 6 6 6 6 6 6 6 7 8 8 9 9 9 11 13 14 16 17 17 18 19 20 20 20 21 21
9 9 10 11 11 11 11 11 10 10 10 10 9 8 8 7 7 7 7 7 7 7 7 7 7 8 8 9 9 9 10 12 14 15 16 17 18 19 20 21 22 22 22
9 10 10 11 11 11 11 11 11 11 11 10 10 10 9 9 9 8 8 8 8 7 7 8 8 8 8 9 10 10 10 11 13 15 16 16 18 19 20 22 23 23 23
9 10 10 10 10 11 11 11 11 11 11 11 10 10 10 10 9 9 9 9 8 8 8 9 9 9 8 9 9 10 11 11 12 14 15 16 18 19 21 21 23 24 24
9 10 10 11 11 11 11 11 11 11 12 11 11 11 11 11 10 10 10 10 9 9 8 9 9 10 9 9 10 10 11 11 12 13 15 16 18 19 20 21 23 24 25
10 10 10 11 11 11 11 12 12 12 12 12 12 12 12 12 12 12 11 11 10 10 9 9 9 10 10 10 11 11 11 12 13 13 15 16 18 20 21 22 23 25 26
10 10 11 11 11 11 12 12 12 13 13 13 13 13 13 13 14 13 13 12 11 11 11 10 10 10 10 11 11 12 12 13 13 14 15 16 18 19 21 21 22 23 25
11 11 11 11 11 12 12 13 13 13 14 14 14 14 14 14 15 15 14 14 12 12 12 11 11 11 12 12 12 13 13 13 14 14 15 15 17 19 20 21 22 23 24
12 12 12 12 12 12 13 13 14 14 15 15 15 15 15 15 15 15 15 13 13 12 12 13 13 13 13 13 13 13 13 14 14 15 15 16 16 18 19 20 20 22 24
12 13 13 13 13 13 14 14 15 15 16 16 16 16 16 16 15 15 14 13 13 13 13 13 13 13 13 13 13 13 14 14 14 15 17 17 17 18 19 20 22 23 24
13 13 14 14 14 14 15 15 16 16 17 17 17 17 17 17 17 17 15 14 14 14 14 13 13 13 13 14 14 14 14 15 15 16 17 18 19 19 20 21 22 24 25
14 15 15 15 15 16 16 16 17 17 18 18 18 18 18 18 18 17 16 16 15 15 15 15 14 14 14 14 15 15 15 16 17 17 18 19 20 21 22 23 24 24 26
16 16 16 16 16 17 17 18 18 18 19 19 19 19 19 19 19 18 17 16 16 16 16 16 16 15 16 16 16 17 17 17 18 19 20 21 22 23 24 25 26 26 27
17 18 17 17 18 18 18 19 19 20 20 20 20 20 20 20 20 19 18 18 18 18 18 18 18 18 18 19 19 19 20 20 21 21 22 23 24 26 26 27 28 29 30
19 19 19 19 19 20 20 20 21 21 22 22 21 21 21 21 21 21 21 20 20 20 20 20 20 21 21 22 22 23 23 23 24 25 25 26 27 28 29 30 31 32 33
20 21 21 21 21 22 22 22 23 23 23 23 23 24 23 23 23 23 23 23 22 22 23 23 24 24 25 25 26 27 27 26 27 28 29 30 30 31 32 33 34 34 35
22 22 22 23 23 24 24 25 25 25 25 25 26 26 26 26 27 26 26 26 26 25 25 26 27 27 28 28 28 29 30 30 30 31 32 32 33 33 34 35 35 36 37
23 24 25 25 25 26 26 26 27 27 27 28 28 29 29 29 30 29 29 28 28 28 29 29 29 30 30 31 31 32 33 34 34 35 35 35 36 35 35 36 36 37 37
25 26 26 27 27 28 28 28 29 30 30 30 30 30 30 31 31 31 31 31 31 31 31 32 32 33 34 34 34 35 36 37 37 38 38 38 39 39 38 38 38 39 39
27 27 28 28 29 29 30 31 31 32 32 32 32 32 32 33 33 33 33 33 33 33 34 35 36 36 36 37 38 39 39 40 40 40 41 42 42 42 42 41 41 42 43
Wind_Direction
5 4 4 4 4 2 1 2 0 358 353 344 332 318 304 293 286 279 271 265 258 254 253 253 251 251 252 248 244 239 232 224 221 220 220 220 217 215 215 213 214 211 208
6 6 8 10 11 10 10 8 6 5 1 357 346 332 316 303 294 291 284 271 265 259 258 258 252 251 252 250 245 241 237 230 225 223 222 221 219 216 214 213 212 211 210
10 10 13 14 15 15 16 15 11 9 5 358 351 342 329 316 304 298 293 281 269 263 261 259 255 253 253 251 247 244 240 236 229 225 223 220 219 216 212 211 211 211 211
15 15 16 17 16 15 15 15 13 12 10 5 358 349 339 330 318 311 301 292 281 273 267 265 261 257 254 251 249 245 238 236 230 226 223 223 220 215 212 211 212 213 213
13 12 13 12 11 10 9 9 8 9 10 9 5 355 345 335 330 326 314 302 290 281 274 271 267 261 257 253 250 241 238 233 227 226 226 224 222 218 214 213 212 214 215
10 9 8 7 6 7 7 5 3 4 5 4 1 357 350 339 332 328 319 308 300 292 281 275 272 266 262 258 250 240 239 235 228 226 225 224 223 220 217 215 213 214 215
4 3 4 5 4 5 4 3 2 2 1 2 1 356 349 339 334 330 322 314 310 303 292 282 275 269 266 261 255 244 238 235 232 229 226 225 224 222 221 219 217 217 217
1 0 1 2 2 2 2 2 1 0 359 358 356 353 349 340 332 327 320 312 309 302 297 287 280 272 268 261 254 247 239 235 233 230 228 227 225 225 222 222 223 222 221
357 357 357 358 358 358 0 2 1 359 356 353 349 346 343 339 336 333 325 316 309 304 298 292 284 277 271 264 255 249 244 238 234 230 228 227 228 227 226 225 226 226 225
351 351 353 354 354 353 355 357 358 356 352 349 345 342 336 333 334 333 327 318 311 304 296 292 287 279 272 267 261 254 250 245 239 234 231 231 231 230 230 229 228 229 228
345 346 347 349 349 349 350 349 349 349 348 345 342 338 330 326 325 324 322 315 310 304 298 291 285 277 273 270 265 260 254 249 244 239 236 234 232 230 231 231 231 230 229
336 339 341 342 342 343 343 342 341 341 342 340 335 332 328 324 321 317 314 309 305 301 297 293 287 279 275 271 267 263 260 254 248 243 240 239 238 234 234 234 233 232 232
329 332 335 336 337 339 340 339 338 337 337 336 332 329 326 323 322 316 309 304 300 296 294 292 289 282 277 275 271 266 262 257 252 247 245 242 239 238 236 235 234 233 233
323 326 328 330 332 334 336 336 334 333 332 331 330 326 322 319 318 315 309 303 297 294 290 289 287 284 281 279 275 269 265 258 252 249 248 247 243 241 240 239 238 237 236
317 320 323 325 327 328 330 330 330 330 329 328 326 324 322 319 318 317 312 303 297 294 291 287 286 285 282 279 276 271 267 261 256 253 252 250 248 246 244 246 245 243 241
311 315 317 319 321 321 322 324 326 327 327 327 325 323 320 319 317 316 315 308 300 295 291 288 286 284 281 279 277 273 269 264 259 256 256 255 253 253 250 249 248 248 246
306 310 311 313 315 316 317 319 321 322 323 323 323 322 320 318 318 313 310 305 298 294 291 288 286 282 280 278 276 274 272 268 263 260 260 258 256 255 254 252 251 251 250
302 305 306 308 309 310 312 315 317 318 318 318 319 319 319 316 315 314 309 306 301 294 291 287 283 280 280 279 276 274 272 269 267 264 262 261 260 258 257 256 255 256 254
300 301 302 304 305 307 309 310 312 313 314 314 315 315 315 314 311 311 308 305 303 298 293 286 282 278 278 279 278 276 275 272 270 268 266 264 263 262 260 258 258 258 256
296 298 299 300 302 305 306 307 309 310 311 312 312 311 311 310 308 306 305 303 301 299 294 288 282 279 279 280 280 280 278 276 274 272 269 268 266 264 263 262 260 259 258
293 296 297 298 300 303 305 306 308 308 308 308 308 309 309 309 307 304 303 302 300 296 292 287 284 281 281 280 280 280 279 276 276 274 272 270 269 267 266 264 263 262 262
291 293 294 296 298 301 303 305 305 305 305 304 304 305 305 306 305 302 301 301 298 294 289 285 283 282 281 280 279 279 278 277 276 274 273 273 272 270 269 267 267 266 265
290 292 293 295 297 298 301 303 302 302 303 302 302 301 300 301 301 300 300 299 296 292 288 285 284 282 281 280 279 279 278 278 278 276 274 274 273 271 271 269 269 268 267
290 291 292 294 296 297 299 300 300 300 300 300 299 300 300 299 299 299 299 298 296 293 289 287 286 284 282 281 281 280 280 280 280 278 276 275 273 271 271 270 269 269 268
290 292 293 294 296 297 298 299 299 298 298 298 298 299 299 299 299 299 298 296 294 292 291 289 287 285 284 283 282 282 282 281 280 278 277 275 274 272 270 269 269 268 268
290 292 293 294 295 296 297 297 297 297 296 296 297 298 298 298 298 298 298 296 294 291 290 289 288 287 286 285 284 283 282 282 280 278 277 276 275 273 270 268 268 268 267
Height
5888 5886 5883 5880 5878 5875 5872 5869 5867 5866 5864 5864 5863 5863 5863 5863 5863 5863 5862 5863 5863 5863 5863 5864 5864 5865 5866 5867 5867 5868 5868 5869 5871 5874 5877 5879 5881 5883 5885 5888 5890 5892 5894
5888 5885 5883 5880 5878 5875 5872 5870 5867 5866 5865 5864 5863 5862 5862 5862 5862 5861 5861 5861 5861 5861 5862 5862 5862 5863 5864 5864 5865 5866 5866 5868 5870 5872 5874 5876 5878 5880 5883 5886 5888 5890 5893
5888 5885 5883 5880 5878 5875 5872 5870 5868 5866 5865 5863 5862 5862 5861 5861 5861 5860 5860 5860 5860 5860 5860 5860 5860 5861 5861 5862 5863 5863 5864 5865 5867 5869 5871 5873 5876 5878 5880 5883 5886 5888 5891
5887 5885 5883 5881 5878 5876 5873 5871 5869 5867 5865 5863 5862 5862 5861 5860 5860 5859 5859 5858 5858 5858 5858 5858 5858 5859 5859 5860 5860 5859 5860 5861 5863 5866 5868 5871 5873 5875 5878 5881 5883 5886 5889
5887 5885 5883 5881 5878 5876 5873 5871 5869 5867 5865 5864 5862 5861 5860 5859 5859 5858 5858 5857 5857 5856 5856 5856 5856 5856 5857 5857 5857 5856 5857 5857 5860 5863 5865 5868 5871 5873 5875 5878 5881 5884 5887
5887 5885 5883 5881 5878 5876 5874 5871 5869 5867 5866 5864 5862 5861 5860 5859 5858 5857 5856 5856 5855 5855 5854 5854 5854 5854 5855 5855 5855 5855 5855 5856 5858 5860 5863 5865 5868 5870 5873 5875 5878 5881 5884
5887 5885 5883 5881 5878 5876 5874 5872 5869 5868 5866 5864 5863 5861 5860 5859 5858 5856 5855 5854 5854 5853 5852 5852 5852 5852 5852 5853 5853 5853 5853 5854 5856 5858 5860 5862 5865 5867 5870 5872 5875 5878 5881
5887 5885 5882 5880 5878 5876 5874 5872 5869 5867 5865 5864 5863 5861 5860 5859 5857 5856 5854 5853 5852 5851 5851 5851 5850 5850 5850 5850 5851 5851 5851 5852 5854 5856 5857 5859 5861 5863 5866 5868 5871 5874 5877
5886 5884 5882 5880 5878 5876 5874 5871 5869 5867 5865 5863 5862 5860 5859 5857 5856 5854 5853 5852 5850 5850 5849 5848 5848 5848 5848 5848 5848 5849 5849 5849 5851 5852 5854 5856 5858 5860 5862 5865 5867 5870 5873
5886 5884 5882 5879 5877 5875 5873 5871 5869 5867 5865 5863 5861 5859 5858 5856 5854 5853 5851 5850 5848 5847 5847 5846 5846 5846 5846 5846 5846 5846 5846 5847 5848 5849 5851 5853 5855 5856 5858 5860 5863 5866 5868
5885 5883 5881 5879 5877 5874 5872 5870 5868 5866 5864 5862 5860 5858 5856 5854 5852 5851 5849 5847 5846 5845 5844 5843 5843 5843 5843 5843 5843 5843 5844 5844 5845 5846 5848 5849 5851 5852 5854 5855 5857 5860 5863
5884 5882 5880 5878 5875 5873 5871 5869 5867 5865 5863 5860 5858 5856 5854 5852 5850 5848 5847 5845 5843 5842 5841 5840 5840 5840 5840 5840 5840 5840 5840 5841 5842 5843 5844 5846 5847 5848 5849 5850 5851 5854 5857
5882 5880 5878 5876 5874 5872 5870 5868 5866 5863 5861 5858 5856 5854 5851 5849 5847 5845 5843 5841 5840 5839 5838 5837 5837 5836 5836 5836 5836 5836 5836 5837 5838 5839 5840 5842 5843 5844 5845 5845 5846 5849 5852
5880 5878 5877 5875 5873 5871 5868 5866 5864 5861 5859 5856 5853 5851 5848 5846 5843 5840 5838 5836 5835 5835 5834 5834 5833 5833 5832 5832 5832 5832 5832 5833 5834 5835 5836 5837 5839 5840 5841 5842 5843 5845 5847
5878 5876 5874 5872 5870 5868 5866 5864 5862 5859 5856 5853 5851 5848 5845 5842 5839 5836 5833 5831 5831 5830 5830 5829 5829 5829 5828 5827 5827 5827 5828 5828 5829 5830 5831 5833 5834 5835 5837 5837 5839 5841 5842
5875 5874 5872 5870 5868 5866 5864 5861 5859 5856 5853 5850 5848 5845 5841 5838 5835 5832 5829 5827 5826 5826 5825 5825 5825 5824 5823 5823 5823 5823 5823 5824 5824 5825 5826 5828 5829 5831 5832 5833 5834 5835 5837
5872 5871 5869 5867 5865 5863 5861 5858 5856 5853 5850 5847 5844 5841 5838 5835 5831 5828 5826 5824 5822 5821 5821 5820 5820 5820 5819 5819 5819 5819 5819 5819 5820 5820 5821 5822 5824 5825 5826 5827 5828 5830 5831
5869 5867 5865 5864 5862 5859 5857 5855 5852 5850 5847 5843 5840 5837 5834 5831 5827 5824 5822 5819 5818 5816 5816 5816 5815 5815 5815 5814 5814 5814 5814 5814 5815 5815 5816 5817 5818 5819 5820 5821 5822 5823 5824
5865 5863 5862 5860 5858 5855 5853 5851 5848 5845 5842 5839 5836 5833 5830 5827 5823 5820 5817 5815 5813 5812 5811 5810 5810 5810 5810 5810 5810 5809 5809 5809 5809 5809 5810 5811 5811 5812 5813 5814 5815 5816 5817
5861 5859 5857 5855 5853 5851 5849 5846 5843 5841 5838 5835 5831 5828 5824 5821 5818 5816 5813 5811 5809 5807 5806 5805 5805 5805 5805 5804 5804 5804 5803 5803 5803 5803 5803 5804 5804 5805 5805 5806 5807 5807 5808
5856 5854 5852 5850 5848 5846 5844 5841 5838 5835 5832 5829 5826 5822 5819 5816 5813 5810 5808 5806 5804 5802 5801 5800 5800 5799 5799 5798 5798 5797 5797 5796 5796 5796 5796 5796 5796 5796 5796 5797 5797 5798 5799
5851 5849 5847 5845 5843 5841 5838 5835 5833 5830 5827 5824 5820 5817 5813 5810 5808 5805 5802 5800 5798 5796 5795 5794 5793 5793 5792 5791 5790 5789 5789 5789 5788 5788 5788 5787 5787 5787 5787 5787 5787 5788 5788
5845 5843 5841 5839 5837 5834 5832 5829 5826 5823 5820 5817 5814 5810 5807 5804 5801 5798 5795 5793 5791 5789 5787 5786 5786 5785 5784 5783 5782 5781 5780 5779 5779 5778 5778 5777 5777 5776 5776 5776 5776 5776 5776
5839 5837 5835 5833 5830 5828 5825 5822 5819 5816 5813 5810 5806 5803 5799 5796 5793 5790 5788 5785 5783 5781 5779 5777 5776 5775 5774 5773 5772 5771 5770 5769 5768 5767 5766 5766 5765 5765 5765 5764 5764 5764 5764
5832 5830 5828 5825 5823 5820 5817 5814 5811 5808 5805 5802 5798 5794 5791 5788 5784 5781 5779 5776 5774 5771 5769 5767 5766 5764 5763 5762 5761 5760 5759 5758 5757 5755 5754 5754 5753 5753 5753 5753 5752 5751 5751
5825 5823 5820 5818 5815 5812 5809 5806 5803 5799 5796 5793 5789 5786 5783 5779 5776 5772 5769 5766 5764 5762 5759 5757 5755 5753 5751 5750 5748 5747 5746 5745 5743 5743 5741 5740 5739 5739 5740 5740 5739 5738 5738